OpenBCM V1.13 (Linux)

Packet Radio Mailbox

DB0FHN

[JN59NK Nuernberg]

 Login: GUEST





  
LU1HVK > KEP      03.10.19 08:35l 244 Lines 12026 Bytes #999 (0) @ WW
BID : 32750_LU1HVK
Read: DJ6UX DF7EAV GUEST
Subj: TLE 03 10
Path: DB0FHN<DB0BLO<DB0ERF<DB0RES<DB0OVN<DB0GOS<ON0AR<GB7CIP<N3HYM<IV3BVK<
      IK5FKA<LU9HGS<LU1HVK
Sent: 191003/0522Z 32750@LU1HVK.2594.CBA.ARG.SA LinBPQ6.0.19

                         _    _   _ _ _   ___     ___  __
                        | |  | | | / | | | \ \   / / |/ /
                        | |  | | | | | |_| |\ \ / /| ' /
                        | |__| |_| | |  _  | \ V / | . \
                        |_____\___/|_|_| |_|  \_/  |_|\_\

     BBS/NODO - CORDOBA (LEONES-FF87UH) - LU1HVK-4 NODO - LU1HVK-3 APRS

+----------------------------------------------------------------------------+
OSCAR 7
1  7530U 74089B   19275.53438049 -.00000045 +00000-0 +28149-5 0  9992
2  7530 101.7576 242.1577 0012254 141.2416 332.4567 12.53640040053547
OSCAR 11 (UoSAT 2)
1 14781U 84021B   19275.62470719  .00000060  00000-0  13534-4 0  9992
2 14781  97.6061 295.3031 0007877 341.8506  18.2426 14.83109393914469
OSCAR 19 (LUSAT)
1 20442U 90005G   19275.45696090  .00000006  00000-0  18593-4 0  9995
2 20442  98.6563 217.3166 0011386 192.5315 167.5587 14.32933731551525
EYESAT A
1 22825U 93061C   19275.56916206 -.00000022 +00000-0 +93284-5 0  9993
2 22825 098.9121 266.6641 0009299 054.8953 305.3098 14.30067451356817
ITAMSAT
1 22826U 93061D   19275.68605183 -.00000025 +00000-0 +81953-5 0  9999
2 22826 098.9061 266.7618 0009688 044.0465 316.1487 14.30401473357052
RADIO ROSTO
1 23439U 94085A   19275.58984928 -.00000044 +00000-0 -47356-4 0  9993
2 23439 064.8157 304.8752 0145304 092.6195 269.1371 11.27568112019836
JAS 2
1 24278U 96046B   19275.88139318 -.00000041 +00000-0 -32795-5 0  9991
2 24278 098.5539 054.9568 0349699 324.8646 032.9874 13.53093542141918
TECHSAT 1B
1 25397U 98043D   19275.67325855 -.00000006 +00000-0 +16617-4 0  9997
2 25397 098.6956 214.5646 0002400 088.3149 271.8304 14.23671369102738
ISS (ZARYA)
1 25544U 98067A   19276.08403935  .00002461  00000-0  50876-4 0  9990
2 25544  51.6434 186.1991 0007560 108.9926  93.1557 15.50139242191994
PCSAT
1 26931U 01043C   19275.63023780 -.00000038 +00000-0 +17195-4 0  9991
2 26931 067.0499 090.3051 0007429 269.6607 090.3643 14.30553874940057
SAUDISAT 1C
1 27607U 02058C   19275.68125091 -.00000011 +00000-0 +19264-4 0  9992
2 27607 064.5541 085.5435 0075943 235.9250 123.4629 14.75575133902541
CUTE-1
1 27844U 03031E   19275.60596466 +.00000037 +00000-0 +36137-4 0  9992
2 27844 098.6855 282.2406 0010979 085.3598 274.8833 14.22197028843305
CUBESAT XI 4
1 27848U 03031J   19275.55794229 +.00000020 +00000-0 +29029-4 0  9991
2 27848 098.6931 282.7153 0010876 096.0074 264.2343 14.21789819843158
MOZHAYETS 4
1 27939U 03042A   19275.92046722 +.00000097 +00000-0 +25897-4 0  9996
2 27939 098.0566 049.7581 0014180 091.6914 268.5904 14.66806517856113
CUBESAT XI 5
1 28895U 05043F   19275.60597631  .00000131  00000-0  33966-4 0  9991
2 28895  97.9747  54.7996 0017182  21.9382 338.2553 14.63695129742975
CUTE-1.7+APD II
1 32785U 08021C   19275.64159613 +.00000193 +00000-0 +26400-4 0  9994
2 32785 097.5555 270.3886 0011495 272.2629 087.7272 14.88350990619373
DELFI C3
1 32789U 08021G   19275.65416737 +.00000961 +00000-0 +67852-4 0  9991
2 32789 097.4544 322.0738 0013703 119.9139 240.3452 15.07143366622822
SEEDS
1 32791U 08021J   19275.54841036 +.00000398 +00000-0 +45754-4 0  9997
2 32791 097.5315 276.3706 0011918 242.4932 117.5076 14.90877787619800
YUBELEINY
1 32953U 08025A   19275.80275957  .00000020  00000-0  75656-4 0  9999
2 32953  82.4979  78.7671 0018638 257.7833 102.1152 12.43091315515495
PRISM (HITOMI)
1 33493U 09002B   19275.56050602 +.00000562 +00000-0 +54649-4 0  9996
2 33493 098.1217 200.5297 0014474 186.9233 173.1790 14.96750404580976
KKS-1 (KISEKI)
1 33499U 09002H   19275.60397338 +.00000061 +00000-0 +17084-4 0  9993
2 33499 098.3427 117.6587 0008186 224.1941 135.8614 14.75465673574411
SWISSCUBE
1 35932U 09051B   19275.40629724 +.00000104 +00000-0 +34476-4 0  9998
2 35932 098.5981 084.5407 0007307 193.3570 166.7435 14.56313504532124
BEESAT
1 35933U 09051C   19275.47162938 +.00000093 +00000-0 +32047-4 0  9994
2 35933 098.6000 086.4109 0005272 204.5466 155.5480 14.56399080532204
ITUPSAT 1
1 35935U 09051E   19275.45293671 +.00000060 +00000-0 +24918-4 0  9995
2 35935 098.6110 086.6213 0007599 205.0523 155.0305 14.55554920531991
XIWANG-1 (HOPE-1)
1 36122U 09072B   19275.91423816 -.00000018  00000-0  63469-4 0  9992
2 36122 100.0775 273.3176 0007990  99.1857 261.0136 13.16351608470856
TISAT 1
1 36799U 10035E   19275.43842038  .00000434  00000-0  49781-4 0  9993
2 36799  98.1696  71.1888 0013618  98.7355 261.5405 14.91165811500526
JUGNU
1 37839U 11058B   19275.62477177 +.00000332 +00000-0 +35413-4 0  9998
2 37839 019.9620 052.3797 0019062 054.8640 042.2586 14.12660134412144
SRMSAT
1 37841U 11058D   19275.67761786 +.00000320 +00000-0 +30798-4 0  9996
2 37841 019.9719 111.0279 0011803 280.8635 141.0536 14.10640326411583
M-CUBED/EXP-1 PRIME
1 37855U 11061F   19275.40221187  .00001280  00000-0  71371-4 0  9990
2 37855 101.7142 225.2653 0173068 123.3414 238.4500 15.05608174432686
HORYU 2
1 38340U 12025D   19275.62015869  .00000155  00000-0  30659-4 0  9997
2 38340  98.3195 317.3368 0012358 142.1437 218.0643 14.75754055396787
STRAND 1
1 39090U 13009E   19275.83331356 +.00000021 +00000-0 +22479-4 0  9991
2 39090 098.4785 119.9660 0008799 340.8750 019.2104 14.35098995345592
SOMP
1 39134U 13015E   19275.60029288  .00001467  00000-0  75478-4 0  9992
2 39134  64.8644  37.2645 0036182 286.1345  73.5801 15.20357428356690
BEESAT 3
1 39135U 13015F   19275.64532307 +.00001025 +00000-0 +59982-4 0  9990
2 39135 064.8686 056.9203 0035099 295.0499 064.6984 15.17624879355932
BEESAT 2
1 39136U 13015G   19275.65677561  .00000936  00000-0  56761-4 0  9996
2 39136  64.8692  61.0097 0026882 300.6410  59.2066 15.17044100356243
CUBEBUG 1
1 39153U 13018D   19275.52914118  .00000219  00000-0  35529-4 0  9999
2 39153  97.9808  13.0741 0016257 211.5209 148.5031 14.80600856347476
ZACUBE
1 39417U 13066B   19275.56754410 +.00000213 +00000-0 +33008-4 0  9990
2 39417 097.5628 283.1198 0060052 047.9198 312.7100 14.81154239316716
TRITON 1
1 39427U 13066M   19275.86500323 +.00000167 +00000-0 +34555-4 0  9992
2 39427 097.6891 246.7519 0113551 184.8300 175.1821 14.67884185313724
GOMX 1
1 39430U 13066Q   19275.90373034 +.00000191 +00000-0 +44086-4 0  9995
2 39430 097.7568 225.5167 0149971 279.6645 078.7655 14.59291151312092
HUMSAT D
1 39433U 13066T   19275.76303359 +.00000252 +00000-0 +29886-4 0  9994
2 39433 097.5433 318.8778 0029463 308.5193 051.3385 14.92260180317717
CUBEBUG 2
1 39440U 13066AA  19275.85513805 +.00000209 +00000-0 +35790-4 0  9994
2 39440 097.6090 268.0588 0081709 099.8875 261.1571 14.75891417314436
FUNCUBE 1
1 39444U 13066AE  19275.57692404 +.00000256 +00000-0 +37643-4 0  9991
2 39444 097.5601 285.1743 0059071 041.4303 319.1367 14.81981170315022
UWE-3
1 39446U 13066AG  19275.54206865 +.00000213 +00000-0 +34674-4 0  9996
2 39446 097.5851 274.8923 0071515 074.9825 285.9288 14.78426488314318
SPROUT
1 39770U 14029E   19275.85619685 +.00000607 +00000-0 +73166-4 0  9994
2 39770 097.8881 018.4878 0009926 095.4542 264.7825 14.87439508290611
UNISAT 6
1 40012U 14033C   19275.64298916  .00000171  00000-0  32726-4 0  9990
2 40012  97.7420 137.6121 0059548 115.3066 245.4328 14.74012006284290
DUCHIFAT 1
1 40021U 14033M   19275.60278638  .00000524  00000-0  59163-4 0  9991
2 40021  97.9238 200.5473 0014301  63.2383 297.0296 14.90692583287326
QB50P1
1 40025U 14033R   19275.61066890 +.00000295 +00000-0 +37375-4 0  9997
2 40025 097.9033 195.1119 0013857 072.6095 287.6636 14.88989553286570
CHUBUSAT 1
1 40300U 14070C   19275.83829230 +.00000812 +00000-0 +38164-4 0  9995
2 40300 097.3182 347.2960 0021187 044.0327 092.3097 15.22187924272168
NUDT-PHONESAT
1 40900U 15049B   19275.94908939 +.00002405 +00000-0 +10486-3 0  9990
2 40900 097.4378 284.2595 0012798 164.3667 256.5447 15.23090104223834
ZDPS 2A
1 40901U 15049C   19275.94594137 +.00000977 +00000-0 +51536-4 0  9996
2 40901 097.4615 280.2486 0013022 186.6693 230.5572 15.17852911223354
ZDPS 2B
1 40902U 15049D   19275.91718631 +.00001368 +00000-0 +71095-4 0  9998
2 40902 097.4563 277.6305 0013042 184.3199 234.4885 15.17712138223328
XW-2A
1 40903U 15049E   19275.87988243 +.00002427 +00000-0 +58507-4 0  9992
2 40903 097.3274 319.1995 0014880 116.9984 330.8034 15.42141559226611
KAITUO 1A
1 40904U 15049F   19275.91093510 +.00000354 +00000-0 +22208-4 0  9998
2 40904 097.4699 276.1222 0013980 194.1828 254.8626 15.15445687223083
OBJECT G
1 40905U 15049G   19275.92892656 +.00000658 +00000-0 +39366-4 0  9998
2 40905 097.4748 273.5809 0015086 190.0636 227.4623 15.14354254222958
XW-2C
1 40906U 15049H   19275.94979413 +.00000549 +00000-0 +32182-4 0  9996
2 40906 097.4710 276.2914 0014151 184.9368 231.4646 15.15765543223095
XW-2D
1 40907U 15049J   19275.91972252 +.00000792 +00000-0 +44673-4 0  9996
2 40907 097.4690 275.9418 0013875 182.1318 265.2722 15.15962860223108
LILACSAT 2
1 40908U 15049K   19275.94201604 +.00000423 +00000-0 +26957-4 0  9992
2 40908 097.4822 274.6742 0015112 190.6229 226.4627 15.13857061222884
XW-2F
1 40910U 15049M   19275.91216001 +.00000994 +00000-0 +52953-4 0  9997
2 40910 097.4646 278.0929 0014802 174.4672 273.8304 15.17441521223123
XW-2B
1 40911U 15049N   19275.95153376 +.00000587 +00000-0 +34090-4 0  9997
2 40911 097.4709 276.6404 0013585 182.6553 233.1683 15.15889455223008
KAITUO 1B
1 40912U 15049P   19275.91281329 +.00001162 +00000-0 +57395-4 0  9997
2 40912 097.4508 281.9022 0015267 156.3784 291.3866 15.19771116223449
TIANWANG 1C (TW-1C)
1 40926U 15051B   19275.91412733 +.00016700 +00000-0 +22665-3 0  9995
2 40926 097.1248 322.0159 0006835 352.2142 091.5352 15.57680068226682
TIANWANG 1B (TW-1B)
1 40927U 15051C   19275.91976919 +.00015328 +00000-0 +22174-3 0  9997
2 40927 097.1273 321.1742 0007488 003.5059 080.4002 15.55966337226523
